| time (UTC) | temp F | wind direction | speed knots | gust knots | rain 1hr in | rain 24hr in | rain mn in | humidity % | barometer mb |
| 20260506174537 | 69 | 272 | 0.9 | 3.5 | 0.04 | 0.06 | 0.06 | 95 | 1012.8 |
| 20260506173037 | 69 | 352 | 1.7 | 3.5 | 0.02 | 0.04 | 0.04 | 95 | 1012.8 |
| 20260506171550 | 68 | 352 | 0.9 | 2.6 | 0.00 | 0.02 | 0.02 | 94 | 1012.9 |
| 20260506170039 | 68 | 352 | 0.9 | 3.5 | 0.00 | 0.02 | 0.02 | 94 | 1012.5 |
| 20260506164540 | 68 | 51 | 0.9 | 5.2 | 0.00 | 0.02 | 0.02 | 94 | 1012.5 |
| 20260506163041 | 67 | 33 | 0.9 | 4.3 | 0.02 | 0.02 | 0.02 | 94 | 1012.4 |
| 20260506161540 | 68 | 341 | 4.3 | 9.6 | 0.02 | 0.02 | 0.02 | 95 | 1012.2 |
| 20260506160037 | 67 | 333 | 4.3 | 12.2 | 0.02 | 0.02 | 0.02 | 95 | 1012.2 |
| 20260506154542 | 68 | 333 | 5.2 | 14.8 | 0.02 | 0.02 | 0.02 | 94 | 1012.1 |
| 20260506153033 | 72 | 333 | 1.7 | 3.5 | 0.00 | 0.00 | 0.00 | 96 | 1011.8 |
| 20260506151537 | 72 | 153 | 0.0 | 2.6 | 0.00 | 0.00 | 0.00 | 96 | 1011.6 |
| 20260506150045 | 72 | 0 | 0.0 | 4.3 | 0.00 | 0.00 | 0.00 | 96 | 1011.5 |
| 20260506144548 | 72 | 153 | 0.0 | 2.6 | 0.00 | 0.00 | 0.00 | 97 | 1011.5 |
| 20260506143036 | 72 | 0 | 0.0 | 4.3 | 0.00 | 0.00 | 0.00 | 97 | 1011.5 |
| 20260506141535 | 72 | 25 | 0.0 | 3.5 | 0.00 | 0.00 | 0.00 | 97 | 1011.3 |
| 20260506140043 | 72 | 0 | 0.0 | 1.7 | 0.00 | 0.00 | 0.00 | 97 | 1011.2 |
| 20260506134537 | 71 | 161 | 0.0 | 3.5 | 0.00 | 0.00 | 0.00 | 97 | 1010.6 |
| 20260506133044 | 71 | 155 | 1.7 | 7.8 | 0.00 | 0.00 | 0.00 | 97 | 1009.8 |
| 20260506131542 | 71 | 165 | 0.9 | 4.3 | 0.00 | 0.00 | 0.00 | 97 | 1009.6 |
| 20260506130037 | 71 | 175 | 1.7 | 5.2 | 0.00 | 0.00 | 0.00 | 97 | 1009.7 |
| 20260506124537 | 71 | 129 | 2.6 | 6.1 | 0.00 | 0.00 | 0.00 | 97 | 1009.5 |
| 20260506123034 | 71 | 136 | 2.6 | 4.3 | 0.00 | 0.00 | 0.00 | 97 | 1009.3 |
| 20260506121536 | 71 | 157 | 1.7 | 6.1 | 0.00 | 0.00 | 0.00 | 97 | 1009.1 |
| 20260506120042 | 71 | 157 | 1.7 | 4.3 | 0.00 | 0.00 | 0.00 | 96 | 1009.2 |
| 20260506114534 | 71 | 182 | 2.6 | 6.1 | 0.00 | 0.00 | 0.00 | 97 | 1009.0 |
| 20260506113046 | 71 | 148 | 1.7 | 5.2 | 0.00 | 0.00 | 0.00 | 97 | 1009.3 |
| 20260506111535 | 71 | 151 | 1.7 | 6.1 | 0.00 | 0.00 | 0.00 | 96 | 1009.4 |
| 20260506110036 | 72 | 145 | 0.9 | 7.8 | 0.00 | 0.00 | 0.00 | 96 | 1009.4 |
| 20260506104537 | 72 | 161 | 3.5 | 8.7 | 0.00 | 0.00 | 0.00 | 96 | 1009.2 |
| 20260506103036 | 72 | 142 | 2.6 | 7.0 | 0.00 | 0.00 | 0.00 | 96 | 1009.4 |
| 20260506101544 | 72 | 148 | 3.5 | 9.6 | 0.00 | 0.00 | 0.00 | 96 | 1009.3 |
| 20260506100037 | 72 | 155 | 4.3 | 13.9 | 0.00 | 0.00 | 0.00 | 96 | 1009.2 |
| 20260506094537 | 72 | 161 | 4.3 | 10.4 | 0.00 | 0.00 | 0.00 | 96 | 1009.2 |
| 20260506093034 | 72 | 150 | 3.5 | 8.7 | 0.00 | 0.00 | 0.00 | 96 | 1009.1 |
| 20260506091534 | 72 | 136 | 3.5 | 11.3 | 0.00 | 0.00 | 0.00 | 96 | 1009.0 |
| 20260506090035 | 72 | 161 | 4.3 | 10.4 | 0.00 | 0.00 | 0.00 | 96 | 1008.9 |
| 20260506084540 | 72 | 158 | 4.3 | 7.8 | 0.00 | 0.00 | 0.00 | 95 | 1008.6 |
| 20260506083039 | 72 | 148 | 4.3 | 10.4 | 0.00 | 0.00 | 0.00 | 95 | 1008.7 |
| 20260506081537 | 72 | 148 | 3.5 | 9.6 | 0.00 | 0.00 | 0.00 | 95 | 1008.5 |
| 20260506073035 | 73 | 169 | 6.1 | 14.8 | 0.00 | 0.00 | 0.00 | 93 | 1008.8 |
| 20260506071541 | 73 | 146 | 4.3 | 8.7 | 0.00 | 0.00 | 0.00 | 93 | 1009.1 |
| 20260506061534 | 74 | 134 | 3.5 | 9.6 | 0.00 | 0.00 | 0.00 | 92 | 1009.5 |
| 20260506044536 | 70 | 0 | 0.0 | 0.0 | 0.00 | 0.00 | 0.00 | 95 | 1009.3 |
| 20260506043036 | 69 | 264 | 0.0 | 2.6 | 0.00 | 0.00 | 0.00 | 94 | 1009.3 |
| 20260506041535 | 69 | 0 | 0.0 | 0.0 | 0.00 | 0.00 | 0.00 | 93 | 1009.1 |
| 20260506040040 | 69 | 0 | 0.0 | 0.0 | 0.00 | 0.00 | 0.00 | 93 | 1009.0 |
| 20260506034535 | 69 | 0 | 0.0 | 0.0 | 0.00 | 0.00 | 0.00 | 92 | 1008.9 |
| 20260506033040 | 70 | 0 | 0.0 | 0.0 | 0.00 | 0.00 | 0.00 | 91 | 1008.8 |
| 20260506031535 | 71 | 0 | 0.0 | 0.0 | 0.00 | 0.00 | 0.00 | 91 | 1008.7 |
| 20260506030033 | 72 | 0 | 0.0 | 0.0 | 0.00 | 0.00 | 0.00 | 91 | 1008.6 |
| 20260506024535 | 71 | 0 | 0.0 | 2.6 | 0.00 | 0.00 | 0.00 | 91 | 1008.3 |
| 20260506023048 | 71 | 0 | 0.0 | 0.0 | 0.00 | 0.00 | 0.00 | 90 | 1008.2 |
| 20260506021536 | 72 | 0 | 0.0 | 0.0 | 0.00 | 0.00 | 0.00 | 89 | 1007.9 |
| 20260506020034 | 74 | 0 | 0.0 | 0.0 | 0.00 | 0.00 | 0.00 | 87 | 1007.6 |
| 20260506014544 | 76 | 0 | 0.0 | 0.0 | 0.00 | 0.00 | 0.00 | 84 | 1007.5 |
| 20260506013037 | 77 | 0 | 0.0 | 1.7 | 0.00 | 0.00 | 0.00 | 81 | 1007.3 |
| 20260506011533 | 78 | 0 | 0.0 | 2.6 | 0.00 | 0.00 | 0.00 | 78 | 1007.0 |
| 20260506010048 | 80 | 175 | 0.9 | 3.5 | 0.00 | 0.00 | 0.00 | 77 | 1006.8 |
| 20260506004537 | 80 | 141 | 2.6 | 5.2 | 0.00 | 0.00 | 0.00 | 75 | 1006.9 |
| 20260506003033 | 81 | 162 | 2.6 | 7.8 | 0.00 | 0.00 | 0.00 | 73 | 1007.2 |
| 20260506001539 | 82 | 155 | 1.7 | 6.1 | 0.00 | 0.00 | 0.00 | 74 | 1007.0 |
| 20260506000033 | 82 | 161 | 3.5 | 7.8 | 0.00 | 0.00 | 0.00 | 72 | 1007.0 |
| 20260505234555 | 83 | 130 | 3.5 | 7.8 | 0.00 | 0.00 | 0.00 | 69 | 1007.0 |
| 20260505233040 | 83 | 171 | 3.5 | 7.0 | 0.00 | 0.00 | 0.00 | 69 | 1006.9 |
| 20260505231535 | 84 | 151 | 3.5 | 7.8 | 0.00 | 0.00 | 0.00 | 68 | 1006.8 |
| 20260505230032 | 83 | 169 | 2.6 | 7.8 | 0.00 | 0.00 | 0.00 | 66 | 1006.8 |
| 20260505224535 | 83 | 199 | 2.6 | 8.7 | 0.00 | 0.00 | 0.00 | 66 | 1007.0 |
| 20260505223035 | 84 | 217 | 2.6 | 8.7 | 0.00 | 0.00 | 0.00 | 67 | 1006.9 |
| 20260505221535 | 83 | 186 | 2.6 | 9.6 | 0.00 | 0.00 | 0.00 | 68 | 1007.0 |
| 20260505220040 | 83 | 171 | 3.5 | 9.6 | 0.00 | 0.00 | 0.00 | 67 | 1007.0 |
| 20260505214558 | 83 | 197 | 5.2 | 9.6 | 0.00 | 0.00 | 0.00 | 68 | 1007.1 |
| 20260505213036 | 83 | 131 | 3.5 | 11.3 | 0.00 | 0.00 | 0.00 | 68 | 1007.3 |
| 20260505211532 | 83 | 154 | 6.1 | 10.4 | 0.00 | 0.00 | 0.00 | 68 | 1007.2 |
| 20260505210031 | 84 | 105 | 4.3 | 10.4 | 0.00 | 0.00 | 0.00 | 68 | 1007.3 |
| 20260505204537 | 83 | 142 | 6.1 | 13.9 | 0.00 | 0.00 | 0.00 | 69 | 1007.6 |
| 20260505203043 | 83 | 130 | 7.0 | 14.8 | 0.00 | 0.00 | 0.00 | 68 | 1007.8 |
| 20260505201538 | 83 | 175 | 6.1 | 10.4 | 0.00 | 0.00 | 0.00 | 71 | 1007.8 |
| 20260505200052 | 82 | 150 | 3.5 | 10.4 | 0.00 | 0.00 | 0.00 | 71 | 1008.1 |
| 20260505194546 | 81 | 215 | 4.3 | 10.4 | 0.00 | 0.00 | 0.00 | 73 | 1008.1 |
| 20260505193042 | 81 | 148 | 6.1 | 10.4 | 0.00 | 0.00 | 0.00 | 72 | 1008.2 |
| 20260505191540 | 80 | 153 | 5.2 | 8.7 | 0.00 | 0.00 | 0.00 | 74 | 1008.6 |
| 20260505190038 | 80 | 115 | 5.2 | 9.6 | 0.00 | 0.00 | 0.00 | 74 | 1008.9 |
| 20260505184535 | 79 | 125 | 4.3 | 10.4 | 0.00 | 0.00 | 0.00 | 77 | 1009.1 |
| 20260505183039 | 78 | 188 | 4.3 | 9.6 | 0.00 | 0.00 | 0.00 | 77 | 1009.4 |
| 20260505181540 | 77 | 132 | 3.5 | 8.7 | 0.00 | 0.00 | 0.00 | 78 | 1009.6 |
| 20260505180059 | 76 | 180 | 4.3 | 8.7 | 0.00 | 0.00 | 0.00 | 79 | 1009.5 |